| time (UTC) | temp F | wind direction | speed knots | gust knots | rain 1hr in | rain 24hr in | rain mn in | humidity % | barometer mb |
| 20260508060158 | 49 | 1 | 1.7 | 4.3 | 0.00 | 0.35 | 0.00 | 57 | 1008.7 |
| 20260508055653 | 50 | 51 | 1.7 | 7.0 | 0.00 | 0.35 | 0.00 | 56 | 1008.7 |
| 20260508055150 | 50 | 359 | 1.7 | 7.0 | 0.00 | 0.35 | 0.00 | 55 | 1008.7 |
| 20260508054639 | 50 | 330 | 2.6 | 5.2 | 0.00 | 0.35 | 0.00 | 55 | 1008.6 |
| 20260508054133 | 51 | 347 | 3.5 | 7.0 | 0.00 | 0.35 | 0.00 | 54 | 1008.6 |
| 20260508053630 | 51 | 325 | 2.6 | 10.4 | 0.00 | 0.35 | 0.00 | 53 | 1008.7 |
| 20260508053124 | 51 | 356 | 2.6 | 10.4 | 0.00 | 0.35 | 0.00 | 53 | 1008.7 |
| 20260508052619 | 52 | 17 | 2.6 | 10.4 | 0.00 | 0.35 | 0.00 | 52 | 1008.6 |
| 20260508052353 | 52 | 344 | 3.5 | 10.4 | 0.00 | 0.35 | 0.00 | 51 | 1008.6 |
| 20260508051619 | 52 | 15 | 4.3 | 7.8 | 0.00 | 0.35 | 0.00 | 51 | 1008.7 |
| 20260508051110 | 52 | 342 | 5.2 | 10.4 | 0.00 | 0.35 | 0.00 | 52 | 1008.7 |
| 20260508050610 | 51 | 359 | 3.5 | 10.4 | 0.00 | 0.35 | 0.00 | 53 | 1008.8 |
| 20260508045829 | 52 | 333 | 2.6 | 8.7 | 0.00 | 0.35 | 0.00 | 52 | 1008.7 |
| 20260508045053 | 52 | 303 | 3.5 | 8.7 | 0.00 | 0.35 | 0.00 | 52 | 1008.8 |
| 20260508044542 | 52 | 324 | 3.5 | 7.8 | 0.00 | 0.35 | 0.00 | 52 | 1008.7 |
| 20260508044027 | 52 | 315 | 1.7 | 11.3 | 0.00 | 0.35 | 0.00 | 52 | 1008.7 |
| 20260508043523 | 52 | 300 | 4.3 | 11.3 | 0.00 | 0.35 | 0.00 | 51 | 1008.6 |
| 20260508043017 | 52 | 311 | 3.5 | 7.8 | 0.00 | 0.35 | 0.00 | 52 | 1008.7 |
| 20260508042519 | 52 | 332 | 3.5 | 7.8 | 0.00 | 0.35 | 0.00 | 52 | 1008.6 |
| 20260508042011 | 52 | 334 | 3.5 | 7.8 | 0.00 | 0.35 | 0.00 | 52 | 1008.7 |
| 20260508041506 | 52 | 289 | 2.6 | 5.2 | 0.00 | 0.35 | 0.00 | 52 | 1008.8 |
| 20260508041003 | 52 | 313 | 2.6 | 7.8 | 0.00 | 0.35 | 0.00 | 51 | 1008.8 |
| 20260508040502 | 52 | 335 | 3.5 | 7.8 | 0.00 | 0.35 | 0.00 | 52 | 1008.8 |
| 20260508035956 | 52 | 314 | 2.6 | 7.8 | 0.00 | 0.35 | 0.35 | 51 | 1008.8 |
| 20260508035724 | 53 | 295 | 3.5 | 7.8 | 0.00 | 0.35 | 0.35 | 51 | 1008.8 |
| 20260508034946 | 52 | 289 | 2.6 | 7.0 | 0.00 | 0.35 | 0.35 | 50 | 1008.7 |
| 20260508034444 | 52 | 308 | 1.7 | 7.0 | 0.00 | 0.35 | 0.35 | 52 | 1008.8 |
| 20260508033939 | 53 | 288 | 1.7 | 6.1 | 0.00 | 0.35 | 0.35 | 52 | 1008.7 |
| 20260508033440 | 53 | 309 | 3.5 | 6.1 | 0.00 | 0.35 | 0.35 | 52 | 1008.7 |
| 20260508032937 | 53 | 297 | 1.7 | 5.2 | 0.00 | 0.35 | 0.35 | 52 | 1008.8 |
| 20260508032430 | 53 | 311 | 2.6 | 5.2 | 0.00 | 0.35 | 0.35 | 53 | 1008.8 |
| 20260508031930 | 53 | 283 | 1.7 | 3.5 | 0.00 | 0.35 | 0.35 | 52 | 1008.9 |
| 20260508031424 | 53 | 318 | 2.6 | 5.2 | 0.00 | 0.35 | 0.35 | 52 | 1008.9 |
| 20260508030910 | 53 | 336 | 2.6 | 5.2 | 0.00 | 0.35 | 0.35 | 51 | 1008.9 |
| 20260508030644 | 53 | 313 | 2.6 | 5.2 | 0.00 | 0.35 | 0.35 | 51 | 1008.8 |
| 20260508025908 | 53 | 316 | 1.7 | 6.1 | 0.00 | 0.35 | 0.35 | 52 | 1008.8 |
| 20260508025406 | 52 | 309 | 1.7 | 8.7 | 0.00 | 0.35 | 0.35 | 52 | 1008.7 |
| 20260508024903 | 53 | 320 | 1.7 | 8.7 | 0.00 | 0.35 | 0.35 | 53 | 1008.7 |
| 20260508024356 | 53 | 338 | 1.7 | 4.3 | 0.00 | 0.35 | 0.35 | 52 | 1008.6 |
| 20260508023851 | 52 | 292 | 1.7 | 7.0 | 0.00 | 0.35 | 0.35 | 52 | 1008.6 |
| 20260508023344 | 52 | 286 | 3.5 | 7.0 | 0.00 | 0.35 | 0.35 | 53 | 1008.6 |
| 20260508022846 | 52 | 295 | 1.7 | 5.2 | 0.00 | 0.35 | 0.35 | 54 | 1008.6 |
| 20260508022339 | 52 | 297 | 1.7 | 5.2 | 0.00 | 0.35 | 0.35 | 53 | 1008.9 |
| 20260508021842 | 52 | 317 | 1.7 | 5.2 | 0.00 | 0.35 | 0.35 | 54 | 1008.7 |
| 20260508021336 | 52 | 305 | 2.6 | 6.1 | 0.00 | 0.35 | 0.35 | 52 | 1008.8 |
| 20260508021111 | 53 | 288 | 1.7 | 6.1 | 0.00 | 0.35 | 0.35 | 52 | 1008.7 |
| 20260508020330 | 53 | 275 | 1.7 | 5.2 | 0.00 | 0.35 | 0.35 | 53 | 1008.7 |
| 20260508015823 | 53 | 302 | 3.5 | 5.2 | 0.00 | 0.35 | 0.35 | 51 | 1008.7 |
| 20260508015317 | 53 | 293 | 1.7 | 5.2 | 0.00 | 0.35 | 0.35 | 51 | 1008.7 |
| 20260508014814 | 53 | 308 | 2.6 | 5.2 | 0.00 | 0.35 | 0.35 | 52 | 1008.6 |
| 20260508014308 | 53 | 312 | 1.7 | 5.2 | 0.00 | 0.35 | 0.35 | 53 | 1008.5 |
| 20260508013802 | 53 | 296 | 1.7 | 5.2 | 0.00 | 0.35 | 0.35 | 53 | 1008.6 |
| 20260508013255 | 53 | 323 | 1.7 | 7.0 | 0.00 | 0.35 | 0.35 | 53 | 1008.4 |
| 20260508012749 | 53 | 302 | 2.6 | 7.8 | 0.00 | 0.35 | 0.35 | 51 | 1008.4 |
| 20260508012245 | 53 | 335 | 2.6 | 7.8 | 0.00 | 0.35 | 0.35 | 52 | 1008.3 |
| 20260508011740 | 53 | 307 | 1.7 | 4.3 | 0.00 | 0.35 | 0.35 | 53 | 1008.2 |
| 20260508011234 | 53 | 284 | 1.7 | 3.5 | 0.00 | 0.35 | 0.35 | 54 | 1008.2 |
| 20260508010722 | 53 | 283 | 1.7 | 5.2 | 0.00 | 0.35 | 0.35 | 52 | 1008.2 |
| 20260508010209 | 53 | 318 | 2.6 | 5.2 | 0.00 | 0.35 | 0.35 | 54 | 1008.2 |
| 20260508005930 | 53 | 302 | 1.7 | 4.3 | 0.00 | 0.35 | 0.35 | 54 | 1008.1 |
| 20260508005159 | 53 | 300 | 1.7 | 4.3 | 0.00 | 0.35 | 0.35 | 52 | 1008.0 |
| 20260508004659 | 54 | 300 | 1.7 | 4.3 | 0.00 | 0.35 | 0.35 | 52 | 1007.9 |
| 20260508004153 | 54 | 356 | 1.7 | 4.3 | 0.00 | 0.35 | 0.35 | 53 | 1007.6 |
| 20260508003652 | 54 | 11 | 1.7 | 5.2 | 0.00 | 0.36 | 0.35 | 52 | 1007.5 |
| 20260508003147 | 54 | 271 | 1.7 | 5.2 | 0.00 | 0.36 | 0.35 | 52 | 1007.5 |
| 20260508002642 | 54 | 318 | 1.7 | 4.3 | 0.00 | 0.36 | 0.35 | 51 | 1007.4 |
| 20260508002138 | 55 | 336 | 1.7 | 4.3 | 0.00 | 0.36 | 0.35 | 51 | 1007.4 |
| 20260508001622 | 55 | 328 | 0.9 | 5.2 | 0.00 | 0.36 | 0.35 | 53 | 1007.3 |
| 20260508001119 | 55 | 317 | 1.7 | 5.2 | 0.00 | 0.36 | 0.35 | 52 | 1007.3 |
| 20260508000612 | 55 | 323 | 1.7 | 6.1 | 0.00 | 0.37 | 0.35 | 53 | 1007.3 |
| 20260508000105 | 55 | 310 | 1.7 | 6.1 | 0.00 | 0.37 | 0.35 | 54 | 1007.3 |
| 20260507235602 | 55 | 330 | 1.7 | 5.2 | 0.00 | 0.37 | 0.35 | 59 | 1007.2 |
| 20260507235055 | 55 | 6 | 0.9 | 5.2 | 0.00 | 0.37 | 0.35 | 66 | 1007.2 |
| 20260507234823 | 55 | 328 | 1.7 | 5.2 | 0.00 | 0.37 | 0.35 | 65 | 1007.2 |
| 20260507234051 | 55 | 310 | 0.0 | 0.9 | 0.00 | 0.37 | 0.35 | 73 | 1007.2 |
| 20260507233544 | 55 | 310 | 0.0 | 1.7 | 0.00 | 0.37 | 0.35 | 73 | 1007.2 |
| 20260507233033 | 55 | 310 | 0.0 | 1.7 | 0.00 | 0.37 | 0.35 | 74 | 1007.0 |
| 20260507232525 | 55 | 310 | 0.9 | 3.5 | 0.00 | 0.37 | 0.35 | 74 | 1007.1 |
| 20260507232022 | 56 | 310 | 0.0 | 3.5 | 0.00 | 0.38 | 0.35 | 74 | 1007.1 |
| 20260507231541 | 56 | 173 | 0.9 | 3.5 | 0.00 | 0.39 | 0.35 | 73 | 1006.9 |
| 20260507231533 | 56 | 174 | 0.9 | 2.6 | 0.00 | 0.38 | 0.35 | 74 | 1007.0 |
| 20260507230518 | 56 | 173 | 1.7 | 3.5 | 0.00 | 0.39 | 0.35 | 73 | 1006.9 |
| 20260507225958 | 56 | 157 | 0.9 | 2.6 | 0.00 | 0.39 | 0.35 | 74 | 1006.7 |
| 20260507225452 | 56 | 159 | 0.9 | 2.6 | 0.00 | 0.39 | 0.35 | 73 | 1006.7 |
| 20260507224954 | 56 | 176 | 0.9 | 3.5 | 0.00 | 0.39 | 0.35 | 73 | 1006.7 |
| 20260507224448 | 56 | 177 | 1.7 | 3.5 | 0.00 | 0.39 | 0.35 | 73 | 1006.6 |
| 20260507223935 | 56 | 193 | 1.7 | 6.1 | 0.00 | 0.40 | 0.35 | 73 | 1006.6 |
| 20260507223431 | 56 | 149 | 0.9 | 6.1 | 0.00 | 0.40 | 0.35 | 73 | 1006.5 |
| 20260507222927 | 56 | 169 | 1.7 | 4.3 | 0.00 | 0.40 | 0.35 | 73 | 1006.6 |
| 20260507222426 | 56 | 179 | 1.7 | 5.2 | 0.00 | 0.40 | 0.35 | 73 | 1006.5 |
| 20260507221921 | 56 | 190 | 2.6 | 5.2 | 0.00 | 0.40 | 0.35 | 72 | 1006.6 |
| 20260507221650 | 56 | 138 | 3.5 | 6.1 | 0.00 | 0.40 | 0.35 | 72 | 1006.6 |
| 20260507220908 | 56 | 171 | 1.7 | 7.8 | 0.00 | 0.40 | 0.35 | 71 | 1006.5 |
| 20260507220409 | 56 | 181 | 2.6 | 7.8 | 0.00 | 0.40 | 0.35 | 71 | 1006.6 |
| 20260507215906 | 56 | 192 | 2.6 | 7.0 | 0.00 | 0.40 | 0.35 | 70 | 1006.5 |
| 20260507215405 | 57 | 144 | 2.6 | 6.1 | 0.00 | 0.40 | 0.35 | 70 | 1006.5 |
| 20260507214859 | 57 | 138 | 1.7 | 5.2 | 0.00 | 0.40 | 0.35 | 70 | 1006.6 |
| 20260507214356 | 57 | 134 | 2.6 | 5.2 | 0.00 | 0.40 | 0.35 | 70 | 1006.4 |
| 20260507213855 | 57 | 158 | 0.9 | 7.0 | 0.00 | 0.40 | 0.35 | 70 | 1006.5 |
| 20260507213350 | 57 | 192 | 2.6 | 7.0 | 0.00 | 0.40 | 0.35 | 70 | 1006.4 |
| 20260507212845 | 56 | 162 | 1.7 | 5.2 | 0.00 | 0.40 | 0.35 | 69 | 1006.5 |
| 20260507212620 | 56 | 161 | 1.7 | 7.0 | 0.00 | 0.40 | 0.35 | 68 | 1006.4 |
| 20260507212616 | 56 | 94 | 2.6 | 5.2 | 0.00 | 0.40 | 0.35 | 69 | 1006.4 |
| 20260507211558 | 57 | 205 | 2.6 | 7.0 | 0.00 | 0.40 | 0.35 | 66 | 1006.4 |
| 20260507210828 | 56 | 175 | 3.5 | 7.8 | 0.00 | 0.40 | 0.35 | 65 | 1006.4 |
| 20260507210824 | 57 | 137 | 1.7 | 7.8 | 0.00 | 0.40 | 0.35 | 66 | 1006.4 |
| 20260507205817 | 56 | 178 | 3.5 | 7.0 | 0.00 | 0.40 | 0.35 | 64 | 1006.4 |
| 20260507205309 | 56 | 115 | 3.5 | 8.7 | 0.00 | 0.40 | 0.35 | 66 | 1006.4 |
| 20260507204804 | 56 | 195 | 3.5 | 8.7 | 0.00 | 0.40 | 0.35 | 66 | 1006.3 |
| 20260507204257 | 56 | 220 | 1.7 | 7.8 | 0.00 | 0.40 | 0.35 | 67 | 1006.2 |
| 20260507203755 | 56 | 193 | 2.6 | 7.0 | 0.00 | 0.40 | 0.35 | 68 | 1006.1 |
| 20260507203246 | 56 | 113 | 1.7 | 7.0 | 0.00 | 0.40 | 0.35 | 67 | 1006.2 |
| 20260507202742 | 56 | 172 | 3.5 | 8.7 | 0.00 | 0.40 | 0.35 | 67 | 1006.3 |
| 20260507202235 | 56 | 136 | 3.5 | 8.7 | 0.00 | 0.40 | 0.35 | 68 | 1006.3 |
| 20260507201730 | 56 | 138 | 2.6 | 8.7 | 0.00 | 0.40 | 0.35 | 70 | 1006.2 |
| 20260507201223 | 56 | 183 | 4.3 | 8.7 | 0.00 | 0.40 | 0.35 | 69 | 1006.2 |
| 20260507200720 | 56 | 110 | 2.6 | 9.6 | 0.00 | 0.40 | 0.35 | 68 | 1006.2 |
| 20260507200221 | 56 | 165 | 2.6 | 9.6 | 0.00 | 0.40 | 0.35 | 68 | 1006.2 |
| 20260507195713 | 56 | 172 | 5.2 | 9.6 | 0.00 | 0.40 | 0.35 | 68 | 1006.4 |
| 20260507195214 | 56 | 204 | 2.6 | 9.6 | 0.00 | 0.40 | 0.35 | 69 | 1006.3 |
| 20260507194711 | 57 | 152 | 5.2 | 9.6 | 0.00 | 0.40 | 0.35 | 67 | 1006.4 |
| 20260507194210 | 57 | 151 | 2.6 | 8.7 | 0.00 | 0.40 | 0.35 | 66 | 1006.5 |
| 20260507193706 | 56 | 154 | 3.5 | 8.7 | 0.00 | 0.40 | 0.35 | 66 | 1006.4 |
| 20260507193203 | 56 | 150 | 4.3 | 10.4 | 0.00 | 0.40 | 0.35 | 66 | 1006.5 |
| 20260507192657 | 56 | 167 | 4.3 | 10.4 | 0.00 | 0.40 | 0.35 | 67 | 1006.6 |
| 20260507192153 | 56 | 203 | 3.5 | 7.8 | 0.00 | 0.40 | 0.35 | 69 | 1006.7 |
| 20260507191646 | 56 | 280 | 3.5 | 7.0 | 0.00 | 0.40 | 0.35 | 71 | 1006.8 |
| 20260507191141 | 56 | 212 | 1.7 | 8.7 | 0.00 | 0.40 | 0.35 | 71 | 1006.9 |
| 20260507190932 | 56 | 198 | 2.6 | 8.7 | 0.00 | 0.40 | 0.35 | 70 | 1006.8 |
| 20260507190136 | 56 | 185 | 5.2 | 9.6 | 0.00 | 0.40 | 0.35 | 69 | 1006.9 |
| 20260507185638 | 56 | 182 | 4.3 | 9.6 | 0.00 | 0.40 | 0.35 | 68 | 1007.1 |
| 20260507185133 | 57 | 211 | 3.5 | 8.7 | 0.00 | 0.40 | 0.35 | 69 | 1006.9 |
| 20260507184906 | 57 | 165 | 1.7 | 6.1 | 0.00 | 0.40 | 0.35 | 71 | 1007.2 |
| 20260507184126 | 57 | 164 | 2.6 | 7.0 | 0.00 | 0.40 | 0.35 | 72 | 1007.1 |
| 20260507183622 | 57 | 155 | 1.7 | 7.0 | 0.00 | 0.40 | 0.35 | 72 | 1007.1 |
| 20260507183107 | 56 | 113 | 1.7 | 6.1 | 0.00 | 0.40 | 0.35 | 73 | 1007.1 |
| 20260507182605 | 56 | 52 | 1.7 | 6.1 | 0.00 | 0.40 | 0.35 | 73 | 1007.0 |
| 20260507182104 | 56 | 203 | 2.6 | 7.0 | 0.00 | 0.40 | 0.35 | 73 | 1007.1 |
| 20260507181558 | 56 | 160 | 1.7 | 7.0 | 0.00 | 0.40 | 0.35 | 73 | 1007.1 |
| 20260507181051 | 56 | 151 | 3.5 | 6.1 | 0.00 | 0.40 | 0.35 | 74 | 1007.1 |
| 20260507180551 | 56 | 184 | 1.7 | 5.2 | 0.00 | 0.40 | 0.35 | 74 | 1007.2 |
| 20260507180045 | 55 | 139 | 1.7 | 6.1 | 0.00 | 0.40 | 0.35 | 74 | 1007.1 |
| 20260507175548 | 55 | 172 | 2.6 | 6.1 | 0.00 | 0.40 | 0.35 | 74 | 1007.0 |
| 20260507175318 | 56 | 169 | 1.7 | 5.2 | 0.00 | 0.40 | 0.35 | 72 | 1007.2 |
| 20260507175314 | 55 | 212 | 1.7 | 6.1 | 0.00 | 0.40 | 0.35 | 73 | 1007.1 |
| 20260507174032 | 57 | 110 | 3.5 | 5.2 | 0.00 | 0.40 | 0.35 | 71 | 1007.2 |
| 20260507173532 | 57 | 180 | 2.6 | 6.1 | 0.00 | 0.40 | 0.35 | 73 | 1007.1 |
| 20260507173019 | 56 | 182 | 1.7 | 7.0 | 0.00 | 0.40 | 0.35 | 72 | 1007.1 |
| 20260507172518 | 56 | 110 | 3.5 | 7.0 | 0.00 | 0.40 | 0.35 | 73 | 1007.3 |
| 20260507172013 | 56 | 158 | 1.7 | 4.3 | 0.00 | 0.40 | 0.35 | 72 | 1007.3 |
| 20260507171514 | 55 | 142 | 2.6 | 4.3 | 0.00 | 0.40 | 0.35 | 72 | 1007.5 |
| 20260507171009 | 55 | 137 | 1.7 | 4.3 | 0.00 | 0.40 | 0.35 | 72 | 1007.6 |
| 20260507170508 | 56 | 130 | 1.7 | 4.3 | 0.00 | 0.40 | 0.35 | 70 | 1007.6 |
| 20260507170005 | 56 | 126 | 1.7 | 3.5 | 0.00 | 0.40 | 0.35 | 69 | 1007.7 |
| 20260507165730 | 57 | 114 | 1.7 | 3.5 | 0.00 | 0.40 | 0.35 | 67 | 1007.7 |
| 20260507164946 | 57 | 126 | 1.7 | 4.3 | 0.00 | 0.40 | 0.35 | 66 | 1007.7 |
| 20260507164445 | 58 | 122 | 1.7 | 4.3 | 0.00 | 0.40 | 0.35 | 66 | 1007.7 |
| 20260507163940 | 58 | 148 | 1.7 | 4.3 | 0.00 | 0.40 | 0.35 | 70 | 1007.9 |
| 20260507163434 | 58 | 139 | 0.9 | 4.3 | 0.00 | 0.40 | 0.35 | 69 | 1007.9 |
| 20260507162932 | 58 | 110 | 2.6 | 4.3 | 0.00 | 0.40 | 0.35 | 67 | 1007.9 |
| 20260507162425 | 57 | 105 | 1.7 | 4.3 | 0.00 | 0.40 | 0.35 | 70 | 1007.9 |
| 20260507161930 | 56 | 84 | 1.7 | 4.3 | 0.00 | 0.40 | 0.35 | 71 | 1008.2 |
| 20260507161926 | 57 | 85 | 2.6 | 4.3 | 0.00 | 0.40 | 0.35 | 68 | 1008.0 |
| 20260507160912 | 56 | 101 | 1.7 | 6.1 | 0.00 | 0.40 | 0.35 | 69 | 1008.2 |
| 20260507160407 | 56 | 77 | 3.5 | 6.1 | 0.00 | 0.40 | 0.35 | 69 | 1008.2 |
| 20260507155900 | 56 | 51 | 1.7 | 5.2 | 0.00 | 0.40 | 0.35 | 69 | 1008.3 |
| 20260507155401 | 56 | 63 | 2.6 | 7.8 | 0.00 | 0.40 | 0.35 | 66 | 1008.5 |
| 20260507154857 | 56 | 76 | 5.2 | 10.4 | 0.00 | 0.40 | 0.35 | 66 | 1008.5 |
| 20260507154358 | 57 | 71 | 5.2 | 10.4 | 0.00 | 0.40 | 0.35 | 66 | 1008.4 |
| 20260507153851 | 58 | 83 | 5.2 | 8.7 | 0.00 | 0.40 | 0.35 | 65 | 1008.5 |
| 20260507153351 | 58 | 61 | 3.5 | 8.7 | 0.00 | 0.40 | 0.35 | 65 | 1008.5 |
| 20260507152847 | 58 | 55 | 4.3 | 7.8 | 0.00 | 0.40 | 0.35 | 62 | 1008.6 |
| 20260507152624 | 59 | 45 | 3.5 | 6.1 | 0.00 | 0.40 | 0.35 | 64 | 1008.6 |
| 20260507152119 | 59 | 68 | 1.7 | 8.7 | 0.00 | 0.40 | 0.35 | 64 | 1008.6 |
| 20260507151335 | 59 | 72 | 4.3 | 8.7 | 0.00 | 0.40 | 0.35 | 61 | 1008.8 |
| 20260507150829 | 59 | 74 | 5.2 | 8.7 | 0.00 | 0.40 | 0.35 | 62 | 1009.0 |
| 20260507150322 | 59 | 75 | 5.2 | 8.7 | 0.00 | 0.40 | 0.35 | 61 | 1008.9 |
| 20260507145818 | 59 | 29 | 4.3 | 8.7 | 0.00 | 0.40 | 0.35 | 63 | 1008.9 |
| 20260507145319 | 59 | 50 | 5.2 | 8.7 | 0.00 | 0.40 | 0.35 | 60 | 1008.8 |
| 20260507144827 | 59 | 359 | 5.2 | 7.8 | 0.00 | 0.40 | 0.35 | 60 | 1008.9 |
| 20260507144822 | 59 | 342 | 5.2 | 7.8 | 0.00 | 0.40 | 0.35 | 57 | 1008.8 |
| 20260507143809 | 59 | 343 | 2.6 | 8.7 | 0.00 | 0.40 | 0.35 | 60 | 1008.8 |
| 20260507143304 | 58 | 1 | 3.5 | 8.7 | 0.00 | 0.40 | 0.35 | 62 | 1008.9 |
| 20260507142756 | 58 | 37 | 2.6 | 10.4 | 0.00 | 0.40 | 0.35 | 66 | 1008.9 |
| 20260507142528 | 58 | 72 | 5.2 | 10.4 | 0.00 | 0.40 | 0.35 | 62 | 1009.1 |
| 20260507141747 | 58 | 33 | 4.3 | 9.6 | 0.00 | 0.40 | 0.35 | 63 | 1009.1 |
| 20260507141519 | 58 | 30 | 2.6 | 7.0 | 0.00 | 0.40 | 0.35 | 68 | 1009.2 |
| 20260507140740 | 57 | 359 | 4.3 | 9.6 | 0.00 | 0.40 | 0.35 | 66 | 1009.0 |
| 20260507140242 | 57 | 346 | 3.5 | 9.6 | 0.00 | 0.40 | 0.35 | 68 | 1009.0 |
| 20260507135737 | 57 | 41 | 4.3 | 8.7 | 0.00 | 0.40 | 0.35 | 68 | 1009.0 |
| 20260507135232 | 56 | 65 | 3.5 | 8.7 | 0.00 | 0.40 | 0.35 | 71 | 1009.1 |
| 20260507134723 | 56 | 357 | 3.5 | 9.6 | 0.00 | 0.40 | 0.35 | 73 | 1009.2 |
| 20260507134219 | 56 | 317 | 4.3 | 9.6 | 0.00 | 0.40 | 0.35 | 74 | 1009.1 |
| 20260507133946 | 55 | 326 | 3.5 | 8.7 | 0.00 | 0.40 | 0.35 | 77 | 1009.0 |
| 20260507133208 | 55 | 1 | 3.5 | 8.7 | 0.00 | 0.40 | 0.35 | 79 | 1009.0 |
| 20260507132703 | 54 | 41 | 2.6 | 8.7 | 0.00 | 0.40 | 0.35 | 81 | 1009.0 |
| 20260507132159 | 54 | 323 | 5.2 | 8.7 | 0.00 | 0.40 | 0.35 | 84 | 1009.2 |
| 20260507131928 | 53 | 302 | 3.5 | 8.7 | 0.00 | 0.40 | 0.35 | 87 | 1009.2 |
| 20260507131201 | 52 | 11 | 1.7 | 6.1 | 0.00 | 0.40 | 0.35 | 89 | 1009.1 |
| 20260507131157 | 53 | 37 | 3.5 | 7.0 | 0.00 | 0.40 | 0.35 | 88 | 1009.1 |
| 20260507130141 | 52 | 359 | 1.7 | 6.1 | 0.00 | 0.40 | 0.35 | 89 | 1009.2 |
| 20260507125635 | 52 | 353 | 2.6 | 5.2 | 0.00 | 0.40 | 0.35 | 90 | 1009.2 |
| 20260507125129 | 52 | 332 | 1.7 | 5.2 | 0.00 | 0.40 | 0.35 | 90 | 1009.3 |
| 20260507124637 | 51 | 317 | 1.7 | 5.2 | 0.00 | 0.40 | 0.35 | 90 | 1009.4 |
| 20260507124632 | 51 | 328 | 1.7 | 5.2 | 0.00 | 0.40 | 0.35 | 90 | 1009.2 |
| 20260507123619 | 51 | 312 | 1.7 | 5.2 | 0.01 | 0.40 | 0.35 | 90 | 1009.4 |
| 20260507123115 | 51 | 259 | 1.7 | 5.2 | 0.01 | 0.40 | 0.35 | 90 | 1009.5 |
| 20260507122606 | 51 | 294 | 1.7 | 4.3 | 0.02 | 0.40 | 0.35 | 90 | 1009.4 |
| 20260507122107 | 50 | 316 | 0.9 | 3.5 | 0.04 | 0.40 | 0.35 | 90 | 1009.1 |
| 20260507121837 | 50 | 316 | 0.9 | 3.5 | 0.05 | 0.40 | 0.35 | 90 | 1009.1 |
| 20260507121057 | 49 | 323 | 0.9 | 3.5 | 0.05 | 0.40 | 0.35 | 90 | 1008.9 |
| 20260507120553 | 49 | 342 | 1.7 | 3.5 | 0.05 | 0.40 | 0.35 | 90 | 1009.0 |
| 20260507120038 | 49 | 342 | 0.0 | 2.6 | 0.05 | 0.40 | 0.35 | 90 | 1009.1 |
| 20260507115540 | 49 | 342 | 0.0 | 1.7 | 0.05 | 0.40 | 0.35 | 90 | 1009.0 |
| 20260507115032 | 48 | 342 | 0.0 | 1.7 | 0.05 | 0.40 | 0.35 | 90 | 1009.0 |
| 20260507114529 | 49 | 342 | 0.9 | 2.6 | 0.05 | 0.40 | 0.35 | 89 | 1009.2 |
| 20260507114021 | 49 | 342 | 0.9 | 3.5 | 0.05 | 0.40 | 0.35 | 89 | 1009.1 |
| 20260507113537 | 49 | 346 | 1.7 | 3.5 | 0.04 | 0.38 | 0.33 | 89 | 1008.7 |
| 20260507113527 | 49 | 342 | 1.7 | 3.5 | 0.04 | 0.39 | 0.34 | 89 | 1008.6 |
| 20260507112505 | 49 | 345 | 0.9 | 3.5 | 0.03 | 0.37 | 0.32 | 89 | 1009.1 |
| 20260507111953 | 49 | 323 | 0.0 | 4.3 | 0.02 | 0.36 | 0.31 | 89 | 1009.0 |
| 20260507111726 | 49 | 311 | 1.7 | 5.2 | 0.02 | 0.35 | 0.30 | 89 | 1009.4 |
| 20260507110942 | 49 | 330 | 1.7 | 6.1 | 0.02 | 0.35 | 0.30 | 89 | 1009.1 |
| 20260507110436 | 49 | 7 | 3.5 | 6.1 | 0.03 | 0.35 | 0.30 | 89 | 1008.7 |
| 20260507105936 | 49 | 346 | 1.7 | 5.2 | 0.03 | 0.35 | 0.30 | 89 | 1008.6 |
| 20260507105433 | 49 | 8 | 0.9 | 4.3 | 0.03 | 0.35 | 0.30 | 89 | 1008.7 |
| 20260507104928 | 49 | 359 | 1.7 | 5.2 | 0.03 | 0.35 | 0.30 | 89 | 1008.8 |
| 20260507104421 | 49 | 3 | 1.7 | 5.2 | 0.03 | 0.35 | 0.30 | 89 | 1008.8 |
| 20260507103920 | 49 | 345 | 2.6 | 5.2 | 0.03 | 0.35 | 0.30 | 89 | 1009.1 |
| 20260507103416 | 49 | 357 | 2.6 | 7.0 | 0.04 | 0.35 | 0.30 | 89 | 1008.9 |
| 20260507102909 | 49 | 322 | 3.5 | 7.0 | 0.03 | 0.34 | 0.29 | 90 | 1009.3 |
| 20260507102404 | 49 | 0 | 2.6 | 6.1 | 0.03 | 0.34 | 0.29 | 90 | 1009.3 |
| 20260507101905 | 50 | 283 | 2.6 | 7.8 | 0.03 | 0.34 | 0.29 | 90 | 1008.8 |
| 20260507101400 | 50 | 36 | 3.5 | 9.6 | 0.02 | 0.33 | 0.28 | 90 | 1008.7 |
| 20260507100852 | 51 | 335 | 5.2 | 9.6 | 0.02 | 0.33 | 0.28 | 90 | 1008.6 |
| 20260507100626 | 51 | 333 | 1.7 | 6.1 | 0.02 | 0.32 | 0.27 | 91 | 1008.6 |
| 20260507095843 | 51 | 339 | 3.5 | 6.1 | 0.02 | 0.32 | 0.27 | 90 | 1008.7 |
| 20260507095340 | 51 | 335 | 0.9 | 5.2 | 0.02 | 0.32 | 0.27 | 90 | 1008.3 |
| 20260507095103 | 51 | 323 | 0.9 | 5.2 | 0.03 | 0.32 | 0.27 | 90 | 1008.3 |
| 20260507094607 | 52 | 314 | 1.7 | 5.2 | 0.03 | 0.32 | 0.27 | 91 | 1008.6 |
| 20260507093827 | 52 | 337 | 1.7 | 5.2 | 0.03 | 0.31 | 0.27 | 90 | 1008.4 |
| 20260507093328 | 52 | 330 | 2.6 | 5.2 | 0.04 | 0.31 | 0.26 | 90 | 1008.3 |
| 20260507092822 | 52 | 300 | 2.6 | 7.8 | 0.06 | 0.31 | 0.26 | 90 | 1008.5 |
| 20260507092547 | 52 | 325 | 2.6 | 7.8 | 0.09 | 0.31 | 0.26 | 90 | 1008.4 |
| 20260507091810 | 52 | 359 | 2.6 | 7.0 | 0.11 | 0.31 | 0.26 | 90 | 1008.3 |
| 20260507091313 | 52 | 47 | 3.5 | 7.0 | 0.12 | 0.31 | 0.26 | 90 | 1008.0 |
| 20260507090805 | 52 | 359 | 1.7 | 5.2 | 0.13 | 0.31 | 0.26 | 90 | 1007.9 |
| 20260507090300 | 52 | 321 | 1.7 | 6.1 | 0.13 | 0.30 | 0.25 | 90 | 1008.0 |
| 20260507085754 | 52 | 326 | 2.6 | 6.1 | 0.19 | 0.30 | 0.25 | 90 | 1008.0 |
| 20260507085256 | 52 | 314 | 2.6 | 6.1 | 0.22 | 0.30 | 0.25 | 89 | 1007.9 |
| 20260507084750 | 52 | 13 | 1.7 | 6.1 | 0.24 | 0.29 | 0.24 | 89 | 1008.0 |
| 20260507084250 | 52 | 49 | 1.7 | 3.5 | 0.24 | 0.29 | 0.24 | 89 | 1008.0 |
| 20260507083743 | 52 | 48 | 1.7 | 5.2 | 0.23 | 0.28 | 0.23 | 89 | 1007.8 |
| 20260507083237 | 53 | 359 | 1.7 | 7.8 | 0.22 | 0.27 | 0.22 | 89 | 1007.9 |
| 20260507082733 | 53 | 339 | 3.5 | 7.8 | 0.20 | 0.25 | 0.20 | 88 | 1008.0 |
| 20260507082226 | 53 | 359 | 2.6 | 7.0 | 0.17 | 0.22 | 0.17 | 88 | 1007.9 |
| 20260507081719 | 54 | 354 | 2.6 | 7.0 | 0.15 | 0.20 | 0.15 | 88 | 1008.1 |
| 20260507081216 | 54 | 1 | 3.5 | 6.1 | 0.14 | 0.19 | 0.14 | 88 | 1008.2 |
| 20260507080950 | 55 | 0 | 0.9 | 6.1 | 0.13 | 0.18 | 0.13 | 88 | 1007.8 |
| 20260507080209 | 55 | 18 | 1.7 | 7.0 | 0.12 | 0.17 | 0.12 | 88 | 1007.8 |
| 20260507075951 | 56 | 58 | 3.5 | 7.0 | 0.06 | 0.11 | 0.06 | 87 | 1007.9 |
| 20260507075158 | 56 | 297 | 3.5 | 8.7 | 0.02 | 0.07 | 0.03 | 87 | 1007.8 |
| 20260507074652 | 56 | 40 | 3.5 | 8.7 | 0.00 | 0.05 | 0.00 | 88 | 1007.4 |
| 20260507074146 | 56 | 40 | 2.6 | 7.0 | 0.00 | 0.05 | 0.00 | 89 | 1006.7 |
| 20260507073642 | 56 | 26 | 2.6 | 5.2 | 0.00 | 0.05 | 0.00 | 89 | 1006.6 |
| 20260507073410 | 56 | 29 | 0.9 | 4.3 | 0.00 | 0.05 | 0.00 | 90 | 1006.6 |
| 20260507072635 | 56 | 334 | 2.6 | 4.3 | 0.00 | 0.05 | 0.00 | 90 | 1006.7 |
| 20260507072129 | 56 | 350 | 0.9 | 4.3 | 0.00 | 0.05 | 0.00 | 90 | 1006.7 |
| 20260507071857 | 57 | 34 | 2.6 | 4.3 | 0.00 | 0.05 | 0.00 | 91 | 1006.6 |
| 20260507071125 | 57 | 50 | 1.7 | 3.5 | 0.00 | 0.05 | 0.00 | 91 | 1006.8 |
| 20260507070621 | 57 | 50 | 0.9 | 3.5 | 0.00 | 0.05 | 0.00 | 91 | 1006.8 |
| 20260507070114 | 57 | 51 | 0.9 | 5.2 | 0.00 | 0.05 | 0.00 | 91 | 1006.6 |
| 20260507065611 | 58 | 51 | 0.9 | 5.2 | 0.00 | 0.05 | 0.00 | 91 | 1006.4 |
| 20260507065104 | 58 | 248 | 0.0 | 2.6 | 0.00 | 0.05 | 0.00 | 91 | 1006.5 |
| 20260507064600 | 58 | 232 | 0.0 | 0.0 | 0.00 | 0.05 | 0.00 | 91 | 1006.6 |
| 20260507064100 | 58 | 232 | 0.0 | 0.0 | 0.00 | 0.05 | 0.00 | 91 | 1006.7 |
| 20260507063554 | 58 | 232 | 0.0 | 0.0 | 0.00 | 0.05 | 0.00 | 91 | 1006.7 |
| 20260507063318 | 58 | 232 | 0.0 | 0.0 | 0.00 | 0.05 | 0.00 | 91 | 1006.7 |
| 20260507062543 | 58 | 232 | 0.0 | 0.0 | 0.00 | 0.05 | 0.00 | 91 | 1006.8 |
| 20260507062044 | 58 | 232 | 0.0 | 1.7 | 0.00 | 0.05 | 0.00 | 91 | 1006.9 |
| 20260507061550 | 58 | 232 | 0.0 | 0.0 | 0.00 | 0.05 | 0.00 | 91 | 1007.0 |
| 20260507061543 | 58 | 232 | 0.0 | 1.7 | 0.00 | 0.05 | 0.00 | 91 | 1006.8 |
| 20260507060531 | 58 | 232 | 0.0 | 0.0 | 0.00 | 0.05 | 0.00 | 91 | 1007.1 |